When you browse on this site, cookies collect data to enhance your experience and personalize the content and advertising you see.
Visit our Privacy Policy to learn more. By continuing to use the site, you agree to this use of cookies and data.
  • In Austria
  • List of Countries
  • For 7 days
  • Water Temperature
  • Weather Map
  • News
  • Weather Widgets
  • user-avatar
    Login

    Hourly Weather Herāt

    Today, 27 February, Thursday

    Time Temperature Precipitation Wind Pressure Humidity
    00:00 +8°C° 0.1 mm 4 mps 678 mmHg 73%
    01:00 +9°C° 0.1 mm 3 mps 678 mmHg 73%
    02:00 +8°C° 0.1 mm 4 mps 678 mmHg 74%
    03:00 +7°C° 0.1 mm 4 mps 678 mmHg 75%
    04:00 +7°C° 0 mm 4 mps 678 mmHg 76%
    05:00 +6°C° 0 mm 4 mps 679 mmHg 76%
    06:00 +6°C° 0 mm 4 mps 679 mmHg 76%
    07:00 +6°C° 0 mm 4 mps 679 mmHg 76%
    08:00 +7°C° 0.2 mm 5 mps 680 mmHg 72%
    09:00 +8°C° 0.2 mm 5 mps 680 mmHg 68%
    10:00 +8°C° 0 mm 5 mps 681 mmHg 62%
    11:00 +8°C° 0.1 mm 6 mps 681 mmHg 59%
    12:00 +8°C° 0.1 mm 6 mps 681 mmHg 57%
    13:00 +8°C° 0.1 mm 7 mps 681 mmHg 54%
    14:00 +6°C° 0.1 mm 7 mps 681 mmHg 56%
    15:00 +7°C° 0.1 mm 6 mps 680 mmHg 58%
    16:00 +5°C° 0.1 mm 6 mps 680 mmHg 60%
    17:00 +6°C° 0 mm 5 mps 681 mmHg 61%
    18:00 +5°C° 0 mm 5 mps 681 mmHg 63%
    19:00 +5°C° 0 mm 5 mps 682 mmHg 64%
    20:00 +5°C° 0 mm 4 mps 682 mmHg 65%
    21:00 +5°C° 0 mm 4 mps 682 mmHg 66%
    22:00 +5°C° 0 mm 3 mps 682 mmHg 67%
    23:00 +4°C° 0 mm 3 mps 681 mmHg 69%

    Tomorrow, 28 February, Friday

    Time Temperature Precipitation Wind Pressure Humidity
    00:00 +4°C° 0 mm 3 mps 681 mmHg 70%
    01:00 +4°C° 0 mm 3 mps 681 mmHg 72%
    02:00 +3°C° 0 mm 3 mps 681 mmHg 73%
    03:00 +4°C° 0 mm 2 mps 680 mmHg 74%
    04:00 +4°C° 0 mm 2 mps 680 mmHg 76%
    05:00 +3°C° 0 mm 2 mps 680 mmHg 76%
    06:00 +3°C° 0 mm 2 mps 680 mmHg 77%
    07:00 +3°C° 0 mm 2 mps 680 mmHg 78%
    08:00 +4°C° 0 mm 2 mps 680 mmHg 72%
    09:00 +5°C° 0 mm 2 mps 680 mmHg 67%
    10:00 +8°C° 0 mm 1 mps 680 mmHg 61%
    11:00 +8°C° 0 mm 2 mps 680 mmHg 57%
    12:00 +10°C° 0 mm 2 mps 680 mmHg 52%
    13:00 +12°C° 0 mm 2 mps 679 mmHg 48%
    14:00 +12°C° 0 mm 2 mps 679 mmHg 47%
    15:00 +13°C° 0 mm 2 mps 679 mmHg 46%
    16:00 +12°C° 0 mm 3 mps 679 mmHg 44%
    17:00 +12°C° 0 mm 2 mps 679 mmHg 48%
    18:00 +12°C° 0 mm 2 mps 679 mmHg 52%
    19:00 +11°C° 0 mm 1 mps 679 mmHg 56%
    20:00 +10°C° 0 mm 1 mps 678 mmHg 58%
    21:00 +9°C° 0 mm 0 mps 678 mmHg 60%
    22:00 +8°C° 0 mm 0 mps 678 mmHg 62%
    23:00 +8°C° 0 mm 0 mps 678 mmHg 62%

    Day after tomorrow, 29 February, Saturday

    Time Temperature Precipitation Wind Pressure Humidity
    00:00 +9°C° 0 mm 1 mps 677 mmHg 62%
    01:00 +9°C° 0 mm 1 mps 677 mmHg 62%
    02:00 +9°C° 0 mm 1 mps 677 mmHg 64%
    03:00 +8°C° 0 mm 1 mps 676 mmHg 66%
    04:00 +8°C° 0 mm 1 mps 676 mmHg 68%
    05:00 +8°C° 0 mm 1 mps 676 mmHg 68%
    06:00 +8°C° 0 mm 1 mps 676 mmHg 69%
    07:00 +8°C° 0 mm 1 mps 676 mmHg 69%
    08:00 +10°C° 0 mm 1 mps 677 mmHg 61%
    09:00 +13°C° 0 mm 1 mps 677 mmHg 53%
    10:00 +15°C° 0 mm 2 mps 678 mmHg 44%
    11:00 +16°C° 0 mm 2 mps 678 mmHg 39%
    12:00 +17°C° 0 mm 3 mps 678 mmHg 34%
    13:00 +19°C° 0 mm 3 mps 678 mmHg 29%
    14:00 +19°C° 0 mm 4 mps 678 mmHg 27%
    15:00 +19°C° 0 mm 4 mps 677 mmHg 26%
    16:00 +20°C° 0 mm 4 mps 677 mmHg 25%
    17:00 +18°C° 0 mm 3 mps 677 mmHg 29%
    18:00 +17°C° 0 mm 3 mps 677 mmHg 34%
    19:00 +15°C° 0 mm 2 mps 678 mmHg 39%
    20:00 +15°C° 0 mm 2 mps 678 mmHg 42%
    21:00 +14°C° 0 mm 1 mps 677 mmHg 46%
    22:00 +13°C° 0 mm 1 mps 677 mmHg 49%
    23:00 +13°C° 0 mm 1 mps 677 mmHg 51%

    1 March, Sunday

    Time Temperature Precipitation Wind Pressure Humidity
    00:00 +12°C° 0 mm 1 mps 677 mmHg 54%
    01:00 +12°C° 0 mm 1 mps 677 mmHg 56%
    02:00 +11°C° 0 mm 1 mps 676 mmHg 57%
    03:00 +11°C° 0 mm 1 mps 676 mmHg 57%
    04:00 +11°C° 0 mm 1 mps 676 mmHg 58%
    05:00 +11°C° 0 mm 1 mps 676 mmHg 57%
    06:00 +11°C° 0 mm 1 mps 676 mmHg 56%
    07:00 +11°C° 0 mm 1 mps 676 mmHg 55%
    08:00 +13°C° 0 mm 2 mps 677 mmHg 47%
    09:00 +14°C° 0 mm 3 mps 677 mmHg 39%
    10:00 +17°C° 0 mm 3 mps 678 mmHg 30%
    11:00 +19°C° 0 mm 5 mps 678 mmHg 28%
    12:00 +20°C° 0 mm 6 mps 678 mmHg 26%
    13:00 +22°C° 0 mm 8 mps 678 mmHg 23%
    14:00 +22°C° 0 mm 8 mps 677 mmHg 24%
    15:00 +22°C° 0 mm 8 mps 677 mmHg 25%
    16:00 +21°C° 0 mm 9 mps 677 mmHg 26%
    17:00 +20°C° 0 mm 7 mps 677 mmHg 29%
    18:00 +19°C° 0 mm 5 mps 677 mmHg 33%
    19:00 +17°C° 0 mm 4 mps 677 mmHg 37%
    20:00 +17°C° 0 mm 3 mps 677 mmHg 38%
    21:00 +16°C° 0 mm 3 mps 677 mmHg 40%
    22:00 +15°C° 0 mm 2 mps 677 mmHg 41%
    23:00 +15°C° 0 mm 2 mps 677 mmHg 42%

    2 March, Monday

    Time Temperature Precipitation Wind Pressure Humidity
    00:00 +14°C° 0 mm 2 mps 676 mmHg 43%
    01:00 +14°C° 0 mm 2 mps 676 mmHg 44%
    02:00 +13°C° 0 mm 2 mps 676 mmHg 43%
    03:00 +12°C° 0 mm 3 mps 676 mmHg 42%
    04:00 +12°C° 0 mm 3 mps 675 mmHg 41%
    05:00 +12°C° 0 mm 3 mps 675 mmHg 40%
    06:00 +12°C° 0 mm 3 mps 675 mmHg 40%
    07:00 +12°C° 0 mm 3 mps 676 mmHg 39%
    08:00 +14°C° 0 mm 4 mps 676 mmHg 33%
    09:00 +17°C° 0 mm 5 mps 677 mmHg 27%
    10:00 +20°C° 0 mm 6 mps 677 mmHg 22%
    11:00 +22°C° 0 mm 7 mps 677 mmHg 20%
    12:00 +23°C° 0 mm 7 mps 677 mmHg 19%
    13:00 +24°C° 0 mm 8 mps 676 mmHg 18%
    14:00 +24°C° 0 mm 9 mps 676 mmHg 18%
    15:00 +24°C° 0 mm 9 mps 675 mmHg 19%
    16:00 +23°C° 0 mm 10 mps 675 mmHg 19%
    17:00 +22°C° 0 mm 9 mps 675 mmHg 22%
    18:00 +21°C° 0 mm 9 mps 674 mmHg 24%
    19:00 +18°C° 0 mm 8 mps 674 mmHg 27%
    20:00 +18°C° 0 mm 7 mps 675 mmHg 28%
    21:00 +19°C° 0 mm 6 mps 675 mmHg 28%
    22:00 +19°C° 0 mm 5 mps 676 mmHg 29%
    23:00 +16°C° 0 mm 5 mps 676 mmHg 35%

    3 March, Tuesday

    Time Temperature Precipitation Wind Pressure Humidity
    00:00 +15°C° 0 mm 4 mps 676 mmHg 41%
    01:00 +13°C° 0 mm 3 mps 676 mmHg 47%
    02:00 +12°C° 0.2 mm 3 mps 676 mmHg 55%
    03:00 +11°C° 0.2 mm 3 mps 676 mmHg 63%
    04:00 +10°C° 0.2 mm 3 mps 676 mmHg 70%
    05:00 +9°C° 0 mm 3 mps 676 mmHg 73%
    06:00 +8°C° 0 mm 4 mps 677 mmHg 76%
    07:00 +7°C° 0 mm 4 mps 677 mmHg 78%
    08:00 +8°C° 0 mm 4 mps 677 mmHg 73%
    09:00 +10°C° 0 mm 4 mps 678 mmHg 67%
    10:00 +11°C° 0 mm 4 mps 679 mmHg 62%
    11:00 +10°C° 0 mm 5 mps 678 mmHg 59%
    12:00 +12°C° 0 mm 5 mps 678 mmHg 57%
    13:00 +11°C° 0 mm 6 mps 678 mmHg 54%
    14:00 +10°C° 0 mm 6 mps 678 mmHg 55%
    15:00 +10°C° 0 mm 7 mps 678 mmHg 56%
    16:00 +9°C° 0 mm 7 mps 678 mmHg 57%
    17:00 +8°C° 0 mm 6 mps 678 mmHg 60%
    18:00 +7°C° 0 mm 6 mps 678 mmHg 63%
    19:00 +6°C° 0 mm 5 mps 679 mmHg 65%
    20:00 +6°C° 0 mm 5 mps 679 mmHg 67%
    21:00 +6°C° 0 mm 5 mps 679 mmHg 68%
    22:00 +5°C° 0 mm 5 mps 680 mmHg 69%
    23:00 +5°C° 0 mm 5 mps 679 mmHg 70%
    Show more